Location: Izdebno
(52.6670°N, 16.2170°E)
Time: 02:38:44
(UTC+01:00)

Envisat - Visible Passes

Search period start: 10 December 2022 00:00
Search period end: 20 December 2022 00:00
Orbit: 763 x 765 km, 98.2° (Epoch: 09 December)

Date Brightness Start Highest point End Pass type
(mag) Time Alt. Az. Time Alt. Az. Time Alt. Az.
10 Dec 4.5 04:18:26 10° NNE 04:20:43 27° NNE 04:20:43 27° NNE visible
10 Dec 4.4 05:58:17 10° N 06:00:53 20° NW 06:00:53 20° NW visible
11 Dec 5.2 03:41:36 10° NNE 03:43:10 19° NE 03:43:10 19° NE visible
11 Dec 4.2 05:20:45 10° N 05:23:20 26° NNW 05:23:20 26° NNW visible
11 Dec 5.8 16:43:44 10° WSW 16:46:40 15° W 16:49:37 10° NW visible
12 Dec 5.9 03:05:12 10° NE 03:05:37 12° NE 03:05:37 12° NE visible
12 Dec 4.4 04:43:30 10° N 04:45:48 27° N 04:45:48 27° N visible
12 Dec 4.7 06:23:59 10° NNW 06:25:58 14° NW 06:25:58 14° NW visible
13 Dec 4.9 04:06:29 10° NNE 04:08:16 22° NNE 04:08:16 22° NNE visible
13 Dec 4.4 05:46:07 10° N 05:48:26 21° NNW 05:48:26 21° NNW visible
14 Dec 5.5 03:29:46 10° NNE 03:30:44 15° NE 03:30:44 15° NE visible
14 Dec 4.4 05:08:41 10° N 05:10:55 25° N 05:10:55 25° N visible
14 Dec 4.9 06:51:01 10° NW 06:51:05 10° NW 06:51:05 10° NW visible
14 Dec 5.7 16:30:59 10° SW 16:34:33 19° W 16:38:07 10° NW visible
15 Dec 4.7 04:31:30 10° NNE 04:33:23 23° NNE 04:33:23 23° NNE visible
15 Dec 4.6 06:11:39 10° NNW 06:13:34 16° NNW 06:13:34 16° NNW visible
16 Dec 5.2 03:54:34 10° NNE 03:55:53 18° NNE 03:55:53 18° NNE visible
16 Dec 4.5 05:33:59 10° N 05:36:03 21° NNW 05:36:03 21° NNW visible
16 Dec 6.0 16:58:09 10° WSW 16:59:57 12° W 17:01:45 10° WNW visible
17 Dec 5.8 03:17:58 10° NE 03:18:22 12° NE 03:18:22 12° NE visible
17 Dec 4.6 04:56:37 10° N 04:58:32 23° N 04:58:32 23° N visible
17 Dec 4.8 06:37:39 10° NNW 06:38:43 12° NW 06:38:43 12° NW visible
17 Dec 5.5 16:18:25 10° SW 16:22:26 23° W 16:26:27 10° NW visible
18 Dec 5.0 04:19:31 10° NNE 04:21:03 20° NNE 04:21:03 20° NNE visible
18 Dec 4.6 05:59:25 10° N 06:01:13 17° NNW 06:01:13 17° NNW visible
19 Dec 5.5 03:42:40 10° NNE 03:43:33 15° NNE 03:43:33 15° NNE visible
19 Dec 4.6 05:21:51 10° N 05:23:43 21° NNW 05:23:43 21° NNW visible
19 Dec 5.8 16:45:00 10° WSW 16:47:47 15° W 16:50:36 10° NW visible
